Location: Fazenda Monte Alegre
(4.8500°S, 38.0333°W)
Time: 15:13:49
(UTC+00:00)

Cosmos 1900 - Pass Details

Date: 24 September 2020
Orbit: 679 x 743 km, 66.1° (Epoch: 19 October)

Event Time Altitude Azimuth Distance (km) Brightness Sun altitude
Rises 21:00:50 0° 344° (NNW) 3,150 7.9 -9.1°
Reaches altitude 10° 21:03:13 10° 346° (NNW) 2,225 7.1 -9.7°
Maximum altitude 21:08:17 70° 70° (ENE) 771 4.3 -11.0°
Drops below altitude 10° 21:13:16 10° 153° (SSE) 2,200 6.6 -12.2°
Sets 21:15:37 0° 155° (SSE) 3,113 7.4 -12.8°
